Tracking 28052 objects as of 23-Sep-2023
HD Live streaming from Space Station
objects crossing your sky now

SINE

Track SINE now!
10-day predictions


NORAD ID: 47702
Int'l Code: 2021-015D
Perigee: 392.5 km
Apogee: 401.9 km
Inclination: 97.4 °
Period: 92.4 minutes
Semi major axis: 6768 km
RCS: Unknown
Launch date: February 28, 2021
Source: India (IND)
Launch site: SRIHARIKOTA (SRI)
Your satellite tracking list
Your tracking list is empty




NASA's NSSDC Master Catalog

Two Line Element Set (TLE):
1 47702U 21015D   23266.01773941  .00120786  00000-0  15232-2 0  9999
2 47702  97.3820 351.6274 0006963 223.8608 136.2096 15.59163598143256
Source of the keplerian elements: AFSPC